TimeEDT,TemperatureF,Dew PointF,Humidity,Sea Level PressureIn,VisibilityMPH,Wind Direction,Wind SpeedMPH,Gust SpeedMPH,PrecipitationIn,Events,Conditions,WindDirDegrees,DateUTC
12:15 AM,59.0,48.2,67,29.97,10.0,NNE,8.1,-,N/A,,Clear,20,2013-07-25 04:15:00
12:35 AM,59.0,48.2,67,29.99,10.0,North,6.9,-,N/A,,Clear,10,2013-07-25 04:35:00
12:55 AM,59.0,46.4,63,29.99,10.0,NNE,6.9,-,N/A,,Clear,20,2013-07-25 04:55:00
1:15 AM,57.2,46.4,67,29.99,10.0,North,8.1,-,N/A,,Mostly Cloudy,360,2013-07-25 05:15:00
1:35 AM,59.0,46.4,63,29.99,10.0,North,6.9,-,N/A,,Overcast,360,2013-07-25 05:35:00
1:55 AM,59.0,46.4,63,29.99,10.0,North,9.2,-,N/A,,Overcast,360,2013-07-25 05:55:00
2:15 AM,57.2,46.4,67,29.99,10.0,North,8.1,-,N/A,,Overcast,360,2013-07-25 06:15:00
2:35 AM,57.2,46.4,67,30.00,10.0,North,8.1,-,N/A,,Overcast,360,2013-07-25 06:35:00
2:55 AM,57.2,46.4,67,29.99,10.0,North,8.1,-,N/A,,Overcast,360,2013-07-25 06:55:00
3:15 AM,57.2,46.4,67,30.00,10.0,North,6.9,-,N/A,,Overcast,360,2013-07-25 07:15:00
3:35 AM,57.2,44.6,63,30.00,10.0,North,9.2,-,N/A,,Overcast,10,2013-07-25 07:35:00
3:55 AM,57.2,44.6,63,30.01,10.0,North,4.6,-,N/A,,Overcast,360,2013-07-25 07:55:00
4:15 AM,57.2,46.4,67,30.02,10.0,North,4.6,-,N/A,,Overcast,10,2013-07-25 08:15:00
4:35 AM,57.2,44.6,63,30.03,10.0,North,8.1,-,N/A,,Overcast,10,2013-07-25 08:35:00
4:55 AM,57.2,44.6,63,30.02,10.0,North,9.2,-,N/A,,Overcast,10,2013-07-25 08:55:00
5:15 AM,55.4,44.6,67,30.03,10.0,North,6.9,-,N/A,,Mostly Cloudy,10,2013-07-25 09:15:00
5:35 AM,55.4,44.6,67,30.04,10.0,NNE,8.1,-,N/A,,Mostly Cloudy,20,2013-07-25 09:35:00
5:55 AM,55.4,46.4,72,30.04,10.0,North,9.2,-,N/A,,Overcast,360,2013-07-25 09:55:00
6:15 AM,55.4,44.6,67,30.05,10.0,North,8.1,-,N/A,,Overcast,360,2013-07-25 10:15:00
6:55 AM,57.2,46.4,67,30.07,10.0,NNE,6.9,-,N/A,,Overcast,30,2013-07-25 10:55:00
7:15 AM,57.2,46.4,67,30.08,10.0,NNE,8.1,-,N/A,,Overcast,30,2013-07-25 11:15:00
7:35 AM,57.2,46.4,67,30.08,10.0,NNE,9.2,-,N/A,,Overcast,30,2013-07-25 11:35:00
7:55 AM,57.2,46.4,67,30.08,8.0,NNE,9.2,-,N/A,,Overcast,30,2013-07-25 11:55:00
8:15 AM,57.2,46.4,67,30.08,10.0,NNE,11.5,-,N/A,,Overcast,20,2013-07-25 12:15:00
8:35 AM,60.8,46.4,59,30.10,10.0,NE,8.1,-,N/A,,Scattered Clouds,40,2013-07-25 12:35:00
8:55 AM,60.8,46.4,59,30.10,10.0,NNE,12.7,-,N/A,,Scattered Clouds,30,2013-07-25 12:55:00
9:15 AM,62.6,46.4,55,30.10,10.0,NNE,12.7,-,N/A,,Mostly Cloudy,30,2013-07-25 13:15:00
9:35 AM,62.6,48.2,59,30.10,9.0,NE,9.2,-,N/A,,Partly Cloudy,40,2013-07-25 13:35:00
9:55 AM,62.6,46.4,55,30.10,10.0,ENE,10.4,-,N/A,,Scattered Clouds,60,2013-07-25 13:55:00
10:15 AM,64.4,48.2,56,30.11,10.0,NE,13.8,-,N/A,,Partly Cloudy,40,2013-07-25 14:15:00
10:35 AM,64.4,48.2,56,30.11,10.0,ENE,8.1,-,N/A,,Partly Cloudy,60,2013-07-25 14:35:00
10:55 AM,66.2,48.2,52,30.12,10.0,East,5.8,-,N/A,,Partly Cloudy,90,2013-07-25 14:55:00
11:15 AM,66.2,50.0,56,30.12,10.0,ENE,6.9,-,N/A,,Partly Cloudy,70,2013-07-25 15:15:00
11:35 AM,64.4,48.2,56,30.12,10.0,ENE,8.1,-,N/A,,Scattered Clouds,70,2013-07-25 15:35:00
11:55 AM,66.2,48.2,52,30.11,10.0,East,6.9,-,N/A,,Overcast,90,2013-07-25 15:55:00
12:15 PM,66.2,48.2,52,30.12,10.0,NE,11.5,-,N/A,,Overcast,50,2013-07-25 16:15:00
12:55 PM,66.2,50.0,56,30.12,10.0,Calm,Calm,-,N/A,,Overcast,0,2013-07-25 16:55:00
1:15 PM,66.2,50.0,56,30.12,10.0,East,6.9,-,N/A,,Overcast,90,2013-07-25 17:15:00
1:35 PM,66.2,51.8,60,30.12,10.0,ESE,4.6,-,N/A,,Mostly Cloudy,110,2013-07-25 17:35:00
1:55 PM,66.2,50.0,56,30.12,10.0,East,5.8,-,N/A,,Overcast,90,2013-07-25 17:55:00
2:15 PM,68.0,51.8,56,30.11,10.0,East,5.8,-,N/A,,Mostly Cloudy,90,2013-07-25 18:15:00
2:35 PM,68.0,50.0,52,30.11,10.0,NE,3.5,-,N/A,,Scattered Clouds,50,2013-07-25 18:35:00
2:55 PM,68.0,51.8,56,30.11,10.0,ENE,3.5,-,N/A,,Mostly Cloudy,70,2013-07-25 18:55:00
3:35 PM,68.0,51.8,56,30.10,10.0,ESE,4.6,-,N/A,,Overcast,120,2013-07-25 19:35:00
3:55 PM,66.2,51.8,60,30.10,10.0,ESE,3.5,-,N/A,,Overcast,120,2013-07-25 19:55:00
4:35 PM,66.2,51.8,60,30.10,10.0,SE,4.6,-,N/A,,Overcast,130,2013-07-25 20:35:00
4:55 PM,66.2,51.8,60,30.09,10.0,ESE,4.6,-,N/A,,Overcast,110,2013-07-25 20:55:00
5:15 PM,66.2,51.8,60,30.10,10.0,Calm,Calm,-,N/A,,Overcast,0,2013-07-25 21:15:00
5:35 PM,66.2,51.8,60,30.10,10.0,ESE,3.5,-,N/A,,Overcast,120,2013-07-25 21:35:00
5:55 PM,66.2,51.8,60,30.10,10.0,East,3.5,-,N/A,,Overcast,100,2013-07-25 21:55:00
6:15 PM,66.2,53.6,64,30.10,10.0,Calm,Calm,-,N/A,,Overcast,0,2013-07-25 22:15:00
6:35 PM,64.4,53.6,68,30.11,10.0,Calm,Calm,-,N/A,,Overcast,0,2013-07-25 22:35:00
6:55 PM,64.4,57.2,77,30.11,10.0,South,3.5,-,0.01,,Overcast,170,2013-07-25 22:55:00
7:35 PM,60.8,55.4,82,30.11,6.0,Calm,Calm,-,0.13,,Overcast,0,2013-07-25 23:35:00
7:55 PM,60.8,55.4,82,30.11,9.0,Calm,Calm,-,0.15,,Overcast,0,2013-07-25 23:55:00
8:15 PM,60.8,55.4,82,30.11,10.0,Calm,Calm,-,N/A,,Overcast,0,2013-07-26 00:15:00
8:35 PM,59.0,55.4,88,30.11,10.0,East,3.5,-,N/A,,Overcast,80,2013-07-26 00:35:00
8:55 PM,59.0,55.4,88,30.11,10.0,Calm,Calm,-,N/A,,Overcast,0,2013-07-26 00:55:00
9:15 PM,60.8,55.4,82,30.11,10.0,Calm,Calm,-,N/A,,Overcast,0,2013-07-26 01:15:00
9:35 PM,60.8,55.4,82,30.11,10.0,Calm,Calm,-,N/A,,Overcast,0,2013-07-26 01:35:00
9:55 PM,60.8,55.4,82,30.11,10.0,North,3.5,-,N/A,,Overcast,360,2013-07-26 01:55:00
10:15 PM,60.8,55.4,82,30.11,10.0,NE,4.6,-,N/A,,Overcast,40,2013-07-26 02:15:00
10:35 PM,60.8,55.4,82,30.11,10.0,ENE,4.6,-,N/A,,Overcast,70,2013-07-26 02:35:00
10:55 PM,60.8,55.4,82,30.10,10.0,ENE,4.6,-,N/A,,Overcast,60,2013-07-26 02:55:00
11:15 PM,60.8,55.4,82,30.10,10.0,NNE,6.9,-,N/A,,Overcast,20,2013-07-26 03:15:00
11:35 PM,60.8,55.4,82,30.10,10.0,North,5.8,-,N/A,,Overcast,10,2013-07-26 03:35:00
11:55 PM,60.8,55.4,82,30.09,10.0,North,5.8,-,N/A,,Overcast,360,2013-07-26 03:55:00